Location: Saluda
(35.2377°N, 82.3468°W)
Time: 05:01:48
(UTC+00:00)

Vanguard 2 - Pass Details

Date: 08 October 2022
Orbit: 553 x 2933 km, 32.9° (Epoch: 26 November)

Event Time Altitude Azimuth Distance (km) Brightness Sun altitude
Rises 20:23:20 0° 277° (W) 4,974 12.4 29.8°
Reaches altitude 10° 20:26:09 10° 275° (W) 4,252 12.2 29.3°
Maximum altitude 20:38:37 73° 194° (SSW) 2,617 10.9 27.1°
Drops below altitude 10° 20:56:14 10° 114° (ESE) 5,758 11.7 24.0°
Sets 21:00:46 0° 113° (ESE) 6,758 12.0 23.1°
